{"data":{"norad_id":62808,"epoch":"2026-09-21T20:19:34.256928Z","epoch_age_seconds":54897,"freshness":"FRESH","line1":"1 62808U 25018C   26264.84692427  .00010951  00000+0  36424-3 0  9999","line2":"2 62808  53.1593 116.8586 0001205  73.1372 286.9761 15.31690037 93228","mean_motion":15.31690037,"eccentricity":0.0001205,"inclination_deg":53.1593,"raan_deg":116.8586,"arg_perigee_deg":73.1372,"mean_anomaly_deg":286.9761,"bstar":0.00036424,"rev_number":9322,"period_min":94.013799477368,"perigee_km":469.9444013145,"apogee_km":471.59498782789,"semimajor_km":6848.9066945712,"source":"CELESTRAK","updated_at":"2026-09-22T09:00:49.666734Z"}}